User: anonymous   Login
Location: Krakow
(50.0830°N, 19.9170°E)
Time: 22:49:44
(UTC+01:00)
Language:

S-56A Canister/Altair - Orbit

View from above orbital plane
View from above orbital plane
View from above satellite
View from above satellite

Ground track
Ground track

The orbit data is extracted from the following two-line orbital elements,

1    82U 61004B   24051.27151528  .00000701  00000-0  64304-3 0  9992
2    82  38.8510 266.4051 1163824  84.6252 288.5823 12.26561549972637
Epoch (UTC): 20 February 2024 06:30:58
Eccentricity: 0.1163824
inclination: 38.8510°
perigee height: 640 km
apogee height: 2488 km
right ascension of ascending node: 266.4051°
argument of perigee: 84.6252°
revolutions per day: 12.26561549
mean anomaly at epoch: 288.5823°
orbit number at epoch: 97263

The dashed part of the orbit path shows where the satellite is in the earth's shadow,  

DLR